TITAN 3C TRANSTAGE DEB, 26782

Orbit data source: Space-Track

TITAN 3C TRANSTAGE DEB, 26782 is space debris originally from a launch on Tue, 21 Dec 1965 UTC launched from the Air Force Eastern Test Range (AFETR). Debris objects in space refer to the collection of defunct objects orbiting the Earth. Examples of debris include non-operational satellites, rocket bodies, and fragments generated from explosions, collisions, or faulty payload assembly.

Loading next visibility...
Identifier
26782, 1965-108BA
Orbit
Active
Country
Flag of USUS
Related business
Manufacturer
Unknown
Mission
Spacecraft
Bus & Motor
Unknown
Mass
Unknown
Launch date (UTC)
1965-12-21 (60 years ago)
Launch vehicle
Unknown
Launch site
Air Force Eastern Test Range (AFETR)
Object type
Payload
Rocket body
Debris
Shape & HBR
Unknown shape, 0.3 m
Radar Cross Section
Medium (>0.1 m² and <1 m²)

Expand to show TLE details & history
Last TLE update: 21 hours ago

TLE from 21 hours ago
0 TITAN 3C TRANSTAGE DEB
1 26782U 65108BA  25342.44414778  .00055223 -95122-6  23586-2 0  9999
2 26782  26.4217 129.4600 2880765   5.6904 357.0098  9.60136399394601
Epoch: 2025-12-08T10:39Z
TLE epoch observation values (Epoch: 2025-12-08T10:39:34.368Z)
Latitude
0.00001°
Longitude
-107.87628°
Altitude
284.981 km
Speed
8.777 km/s
True Right ascension
08h 37m 50s
True Declination
0° 00' 00"
Sunlit
Object was in full shadow at epoch
Visualization orbit readout
Latitude
Unknown
Longitude
Unknown
Altitude
Unknown
Speed
Unknown
Apparent Right ascension
Unknown
Apparent Declination
Unknown
Sunlit
N/A
Visualization observer readout
Local Sidereal Time
05:53:18
Azimuth
Unknown
Elevation
Unknown
Doppler factor
Unknown
Orbital elements
Apogee altitude
5,671.213 km
Perigee altitude
281.573 km
Semi-major axis
9,354.53 km
Eccentricity
0.28808
Inclination
26.4217°
RAAN
129.46°
Arg. of periapsis
5.6904°
True anomaly
354.35444°
Mean anomaly
357.0098°
Eccentric anomaly
355.80135°
Mean motion
2.39889 °/min
Orbital period
150.07 mins
BSTAR
0.0023586
Loading maneuver chart data...
Computing Atmospheric mass density...

Documentation

Showing up to 5 results
|